Change the Weather History Date:

Saturday, July 5, 2014

  Actual Average Record
Temperature  
Mean Temperature 58 °F -  
Max Temperature 80 °F 77 °F 80 °F (2014)
Min Temperature 37 °F 38 °F 37 °F (2010)
Degree Days  
Heating Degree Days 6    
Growing Degree Days 8 (Base 50)    
Moisture  
Dew Point 42 °F    
Average Humidity 54    
Maximum Humidity 100    
Minimum Humidity 23    
Precipitation  
Precipitation 0.00 in - - ()
Sea Level Pressure  
Sea Level Pressure 30.27 in    
Wind  
Wind Speed 4 mph (SSW)    
Max Wind Speed 20 mph    
Max Gust Speed 25 mph    
Visibility 10 miles    
Events      
Averages and records for this station are not official NWS values.
T = Trace of Precipitation, MM = Missing Value Source: NWS Daily Summary

Daily Weather History Graph

Daily Weather History Graph

Search for Another Location

Airport or City:

Trip Planner

Search our weather history database for the weather conditions in past years. The results will help you decide how hot, cold, wet, or windy it might be!

Date:

Astronomy

Jul. 05, 2014 Rise Set
Actual Time 5:45 AM MDT 9:12 PM MDT
Civil Twilight 5:08 AM MDT 9:49 PM MDT
Nautical Twilight 4:20 AM MDT 10:36 PM MDT
Astronomical Twilight 3:19 AM MDT 11:38 PM MDT
Moon 2:04 PM MDT (7/5) 12:47 AM MDT (7/5)
Length of Visible Light 16h 40m
Length of Day
15h 27m
First Quarter, 53% of the Moon is Illuminated
Jul 5
First Quarter
Jul 12
Full
Jul 18
Last Quarter
Jul 26
New
Aug 3
First Quarter

Hourly Weather History & Observations

Time (MDT) Temp. Windchill Dew Point Humidity Pressure Visibility Wind Dir Wind Speed Gust Speed Precip Events Conditions
12:10 AM 53.6 °F - 44.6 °F 72% 30.22 in 10.0 mi Calm Calm - N/A   Clear
12:30 AM 51.8 °F - 44.6 °F 76% 30.22 in 10.0 mi Calm Calm - N/A   Clear
12:50 AM 50.0 °F - 44.6 °F 82% 30.23 in 10.0 mi Calm Calm - N/A   Clear
1:10 AM 48.2 °F - 44.6 °F 87% 30.23 in 10.0 mi Calm Calm - N/A   Clear
1:30 AM 46.4 °F - 42.8 °F 87% 30.24 in 10.0 mi Calm Calm - N/A   Clear
1:50 AM 46.4 °F 45.2 °F 42.8 °F 87% 30.24 in 10.0 mi SW 3.5 mph - N/A   Clear
2:10 AM 46.4 °F - 42.8 °F 87% 30.25 in 10.0 mi Calm Calm - N/A   Clear
2:30 AM 44.6 °F - 41.0 °F 87% 30.24 in 10.0 mi Calm Calm - N/A   Clear
2:50 AM 44.6 °F - 41.0 °F 87% 30.25 in 10.0 mi Calm Calm - N/A   Clear
3:10 AM 44.6 °F - 41.0 °F 87% 30.25 in 10.0 mi Calm Calm - N/A   Clear
3:30 AM 44.6 °F - 41.0 °F 87% 30.25 in 10.0 mi Calm Calm - N/A   Clear
3:50 AM 41.0 °F - 39.2 °F 93% 30.25 in 10.0 mi Calm Calm - N/A   Clear
4:10 AM 42.8 °F - 39.2 °F 87% 30.25 in 10.0 mi Calm Calm - N/A   Clear
4:30 AM 41.0 °F - 39.2 °F 93% 30.26 in 10.0 mi Calm Calm - N/A   Clear
4:50 AM 39.2 °F - 39.2 °F 100% 30.26 in 10.0 mi Calm Calm - N/A   Clear
5:10 AM 39.2 °F - 37.4 °F 93% 30.26 in 10.0 mi Calm Calm - N/A   Clear
5:30 AM 39.2 °F - 37.4 °F 93% 30.26 in 10.0 mi Calm Calm - N/A   Clear
5:50 AM 37.4 °F 34.9 °F 35.6 °F 93% 30.26 in 10.0 mi SW 3.5 mph - N/A   Clear
6:10 AM 37.4 °F - 37.4 °F 100% 30.26 in 10.0 mi Calm Calm - N/A   Clear
6:30 AM 39.2 °F - 37.4 °F 93% 30.27 in 10.0 mi Calm Calm - N/A   Clear
6:50 AM 42.8 °F - 39.2 °F 87% 30.28 in 10.0 mi Calm Calm - N/A   Clear
7:10 AM 46.4 °F - 41.0 °F 81% 30.28 in 10.0 mi Calm Calm - N/A   Clear
7:30 AM 50.0 °F - 42.8 °F 76% 30.28 in 10.0 mi Calm Calm - N/A   Clear
7:50 AM 51.8 °F - 44.6 °F 76% 30.29 in 10.0 mi Calm Calm - N/A   Clear
8:10 AM 53.6 °F - 44.6 °F 72% 30.29 in 10.0 mi Calm Calm - N/A   Clear
8:30 AM 55.4 °F - 44.6 °F 67% 30.29 in 10.0 mi Calm Calm - N/A   Clear
8:50 AM 59.0 °F - 46.4 °F 63% 30.29 in 10.0 mi Calm Calm - N/A   Clear
9:10 AM 60.8 °F - 46.4 °F 59% 30.29 in 10.0 mi Calm Calm - N/A   Clear
9:30 AM 62.6 °F - 46.4 °F 55% 30.29 in 10.0 mi Calm Calm - N/A   Clear
9:50 AM 64.4 °F - 46.4 °F 52% 30.29 in 10.0 mi Calm Calm - N/A   Clear
10:10 AM 68.0 °F - 46.4 °F 46% 30.29 in 10.0 mi Calm Calm - N/A   Clear
10:30 AM 71.6 °F - 44.6 °F 38% 30.29 in 10.0 mi SSW 4.6 mph - N/A   Clear
10:50 AM 75.2 °F - 39.2 °F 27% 30.29 in 10.0 mi SSW 13.8 mph 21.9 mph N/A   Clear
11:10 AM 75.2 °F - 39.2 °F 27% 30.29 in 10.0 mi SSW 19.6 mph 24.2 mph N/A   Clear
11:30 AM 75.2 °F - 41.0 °F 29% 30.29 in 10.0 mi SSW 16.1 mph 23.0 mph N/A   Clear
11:50 AM 77.0 °F - 41.0 °F 28% 30.28 in 10.0 mi SW 17.3 mph 21.9 mph N/A   Clear
12:10 PM 77.0 °F - 41.0 °F 28% 30.28 in 10.0 mi SSW 13.8 mph 21.9 mph N/A   Clear
12:30 PM 78.8 °F - 41.0 °F 26% 30.28 in 10.0 mi SSW 16.1 mph 21.9 mph N/A   Clear
12:50 PM 80.6 °F - 41.0 °F 24% 30.28 in 10.0 mi SW 11.5 mph 18.4 mph N/A   Clear
1:10 PM 80.6 °F - 41.0 °F 24% 30.28 in 10.0 mi SSW 17.3 mph 21.9 mph N/A   Clear
2:10 PM 80.6 °F - 41.0 °F 24% 30.28 in 10.0 mi SW 12.7 mph 24.2 mph N/A   Clear
2:30 PM 77.0 °F - 39.2 °F 26% 30.28 in 10.0 mi SW 11.5 mph 24.2 mph N/A   Clear
2:50 PM 80.6 °F - 39.2 °F 23% 30.28 in 10.0 mi SW 13.8 mph 20.7 mph N/A   Clear
3:10 PM 80.6 °F - 41.0 °F 24% 30.28 in 10.0 mi SW 13.8 mph 23.0 mph N/A   Partly Cloudy
3:30 PM 80.6 °F - 39.2 °F 23% 30.28 in 10.0 mi WSW 9.2 mph - N/A   Clear
3:50 PM 80.6 °F - 39.2 °F 23% 30.28 in 10.0 mi SSW 17.3 mph 25.3 mph N/A   Clear
4:10 PM 78.8 °F - 41.0 °F 26% 30.28 in 10.0 mi SW 10.4 mph 23.0 mph N/A   Clear
4:30 PM 78.8 °F - 41.0 °F 26% 30.27 in 10.0 mi SSW 12.7 mph 16.1 mph N/A   Clear
4:50 PM 80.6 °F - 39.2 °F 23% 30.27 in 10.0 mi SW 11.5 mph 16.1 mph N/A   Partly Cloudy
5:10 PM 78.8 °F - 39.2 °F 24% 30.27 in 10.0 mi SW 12.7 mph 17.3 mph N/A   Clear
5:30 PM 78.8 °F - 39.2 °F 24% 30.27 in 10.0 mi SSW 12.7 mph 20.7 mph N/A   Clear
5:50 PM 80.6 °F - 39.2 °F 23% 30.26 in 10.0 mi SSW 12.7 mph 17.3 mph N/A   Clear
6:10 PM 80.6 °F - 39.2 °F 23% 30.26 in 10.0 mi South 16.1 mph 23.0 mph N/A   Clear
6:30 PM 80.6 °F - 39.2 °F 23% 30.26 in 10.0 mi SSW 9.2 mph 19.6 mph N/A   Clear
6:50 PM 78.8 °F - 41.0 °F 26% 30.26 in 10.0 mi SSW 11.5 mph - N/A   Clear
7:10 PM 77.0 °F - 41.0 °F 28% 30.26 in 10.0 mi SSW 9.2 mph - N/A   Clear
7:30 PM 77.0 °F - 42.8 °F 29% 30.26 in 10.0 mi SSW 4.6 mph - N/A   Clear
7:50 PM 75.2 °F - 46.4 °F 36% 30.26 in 10.0 mi SSW 5.8 mph - N/A   Clear
8:10 PM 73.4 °F - 44.6 °F 36% 30.26 in 10.0 mi SW 6.9 mph - N/A   Clear
8:30 PM 73.4 °F - 42.8 °F 33% 30.26 in 10.0 mi SSW 8.1 mph - N/A   Clear
8:50 PM 71.6 °F - 44.6 °F 38% 30.26 in 10.0 mi South 6.9 mph - N/A   Clear
9:10 PM 69.8 °F - 44.6 °F 40% 30.26 in 10.0 mi South 4.6 mph - N/A   Clear
9:30 PM 66.2 °F - 44.6 °F 46% 30.27 in 10.0 mi South 3.5 mph - N/A   Clear
9:50 PM 64.4 °F - 44.6 °F 49% 30.28 in 10.0 mi North 4.6 mph - N/A   Clear
10:10 PM 66.2 °F - 41.0 °F 40% 30.28 in 10.0 mi SW 4.6 mph - N/A   Clear
10:30 PM 62.6 °F - 42.8 °F 48% 30.29 in 10.0 mi Calm Calm - N/A   Clear
10:50 PM 59.0 °F - 44.6 °F 59% 30.29 in 10.0 mi Calm Calm - N/A   Clear
11:10 PM 57.2 °F - 44.6 °F 63% 30.29 in 10.0 mi Calm Calm - N/A   Clear
11:30 PM 55.4 °F - 44.6 °F 67% 30.29 in 10.0 mi Calm Calm - N/A   Clear
11:50 PM 53.6 °F - 44.6 °F 72% 30.29 in 10.0 mi Calm Calm - N/A   Clear